Погода в Россоши

Россия / Воронежская область     51°06′32″N   38°30′06″E
темп.,
°C
ветер,
м/с
пор.,
м/с
влажн.,
%
обл.,
%
осадки,
мм/ч
давл.,
гПа
погр.,
м
16 апреля, пт
пт1600:00+9ю348724 0.1 101481
03:00+8ююв22872 0.1 101529
06:00+7ю37920 0.0 1016167
09:00+11ю57640 0.0 1017765
12:00+14ю57475 0.0 10161821
15:00+15ю6740100 0.0 10162357
18:00+12зюз445378 0.0 1017597
21:00+9ююз22660 0.0 101715
17 апреля, сб
сб1700:00+9ююв116798 0.0 101821
03:00+8ююз3577100 0.4 1018152
06:00+7с0091100 3.3 101894
09:00+8всв228486 4.0 1018362
12:00+12юз355111 1.5 10181626
15:00+12юз5643100 1.6 10181975
18:00+10юз555773 0.0 10191429
21:00+7ююз367413 0.0 1020137
18 апреля, вс
вс1800:00+7юз3676100 0.0 1020377
03:00+7юз2481100 0.1 1020300
06:00+6ююз2581100 0.1 1020266
09:00+9юз456521 0.1 1020954
12:00+11юз466280 0.1 10201312
15:00+13ю2352100 0.3 10201452
18:00+12юв2460100 0.1 1020237
21:00+10вюв3665100 0.1 1020145
19 апреля, пн
пн1900:00+10в3765100 0.0 1019152
03:00+8вюв3873100 0.0 1019168
06:00+8вюв3972100 0.0 1019215
09:00+11юв5859100 0.0 1019819
12:00+13юв7953100 0.1 10171881
15:00+10вюв61075100 0.6 10171221
18:00+9в71385100 1.6 1016838
21:00+9в71490100 2.6 1013728
20 апреля, вт
вт2000:00+10в81492100 0.5 1011647
03:00+10в101894100 6.9 1007831
06:00+10вюв122093100 10.8 10041042
09:00+11вюв122192100 19.2 1002898
12:00+12юв112088100 3.9 10001374
15:00+13юв9168996 7.5 999880
18:00+14ююв1116705 0.6 9991304
21:00+10ю10177537 0.9 10021040